Location: G�yn�k
(36.6721°N, 30.5542°E)
Time: 21:08:00
(UTC+00:00)

BREEZE-M DEB (TANK) - Pass Details

Date: 07 October 2020
Orbit: 333 x 12040 km, 49.7° (Epoch: 26 October)

Event Time Altitude Azimuth Distance (km) Brightness Sun altitude
Rises 23:00:57 0° 167° (SSE) 12,575 8.7 -54.5°
Reaches altitude 10° 23:13:11 10° 158° (SSE) 13,160 8.8 -53.0°
Maximum altitude 00:30:38 41° 103° (ESE) 12,980 9.1 -41.2°
Drops below altitude 10° 01:19:53 10° 55° (NE) 10,139 9.3 -32.2°
Sets 01:26:12 0° 50° (NE) 10,022 9.4 -31.0°
